1998-067UB

Last updated on Mon Aug 15 2022 00:02:04 GMT+0000 (Coordinated Universal Time)

1 53462U 98067UB 22226.74141404 .00026381 00000+0 45171-3 0 9999 2 53462 51.6419 46.4994 0007959 141.3301 313.6344 15.51016320 375
UTC large
Height (km)
Speed (km/s)
/
Latitude / Longitude
Inclination (degrees)
Orbital Period (minutes)
Azimuth
Elevation
Range (km)
Doppler Factor

Next 0 passes for location: London (51.5072 / 0.1276)

Sorry there are no passes over London.